Regional Weather Roundup
Issued by NWS

Home | Current Version | Previous Version | Graphics & Text | Print | Product List | Glossary On
Versions: 1 2 3 4 5 6 7 8 9 10 11 12 13 14 15 16 17 18 19 20 21 22 23 24 25 26 27 28 29 30 31 32 33 34 35 36 37 38 39 40 41 42 43 44 45 46 47 48 49 50
000
ASUS43 KLSX 031759
RWRMO

WEATHER SUMMARY FOR MISSOURI
NATIONAL WEATHER SERVICE SPRINGFIELD MO
1200 PM CST TUE MAR 03 2015

NOTE: "FAIR" INDICATES FEW OR NO CLOUDS BELOW 12,000 FEET WITH NO
       SIGNIFICANT WEATHER AND/OR OBSTRUCTIONS TO VISIBILITY.
       CURRENT SKY AND/OR WEATHER CONDITIONS ARE NOT AVAILABLE FOR
       CHILLICOTHE AND FARMINGTON.

MOZ001>031-035>038-043-044-053-054-031900-
...NORTHERN AND WESTERN MISSOURI...

CITY           SKY/WX    TMP DP  RH WIND       PRES   REMARKS
KANSAS CTY INT CLOUDY    46  37  71 W15       29.79R
6HR MIN TEMP:  36; 6HR MAX TEMP:  47; 6HR PCP: TRACE;

KANSAS C DTWN  CLOUDY    48  38  68 W10       29.78R
6HR MIN TEMP:  38; 6HR MAX TEMP:  48;

LEE`S SUMMIT   CLOUDY    45  39  79 SW14      29.79R
6HR MIN TEMP:  35; 6HR MAX TEMP:  45;

ST JOSEPH      CLOUDY    42  35  76 NW14      29.81R
6HR MIN TEMP:  35; 6HR MAX TEMP:  43;

CHILLICOTHE      N/A     42  39  89 VRB6      29.77R
6HR MIN TEMP:  34; 6HR MAX TEMP:  42;

KIRKSVILLE     CLOUDY    38  38 100 W10       29.74R FOG
6HR MIN TEMP:  30; 6HR MAX TEMP:  38; 6HR PCP:  0.01;


$$
MOZ066>068-077>081-088>096-101>105-031900-
...SOUTHWEST MISSOURI...

CITY           SKY/WX    TMP DP  RH WIND       PRES   REMARKS
SPRINGFIELD    CLOUDY    49  46  90 SW22G31   29.85R
6HR MIN TEMP:  34; 6HR MAX TEMP:  49; 6HR PCP: TRACE;

JOPLIN         CLOUDY    47  44  90 SW23G30   29.86R
6HR MIN TEMP:  38; 6HR MAX TEMP:  48;


$$
MOZ032>034-039>042-045>050-055>058-069>072-031900-
...CENTRAL MISSOURI...

CITY           SKY/WX    TMP DP  RH WIND       PRES   REMARKS
COLUMBIA       CLOUDY    45  40  82 W14G23    29.79R
6HR MIN TEMP:  34; 6HR MAX TEMP:  45;

JEFFERSON CITY CLOUDY    48  42  80 W14       29.81R
6HR MIN TEMP:  35; 6HR MAX TEMP:  48;

ROLLA          CLOUDY    46  43  89 SW14      29.79R
6HR MIN TEMP:  34; 6HR MAX TEMP:  46;

SEDALIA        CLOUDY    43  39  86 SW16G26   29.82R
6HR MIN TEMP:  36; 6HR MAX TEMP:  43;

OSAGE BEACH    CLOUDY    48  43  81 SW15G25   29.81R

$$
MOZ051-052-059>065-031900-
...EAST CENTRAL MISSOURI...

CITY           SKY/WX    TMP DP  RH WIND       PRES   REMARKS
ST LOUIS INTL  DRIZZLE   48  43  82 SW9       29.80R
6HR MIN TEMP:  35; 6HR MAX TEMP:  48; 6HR PCP:  0.01;

SPIRIT OF STL  CLOUDY    47  43  86 SW14      29.79R
6HR MIN TEMP:  32; 6HR MAX TEMP:  49; 6HR PCP:  0.01;

ST CHARLES     CLOUDY    39  37  92 NE3       29.80R FOG
6HR MIN TEMP:  32; 6HR MAX TEMP:  39; 6HR PCP:  0.01;


$$
MOZ072>076-082>087-097>100-106>115-031900-
...SOUTH CENTRAL AND SOUTHEAST MISSOURI...

CITY           SKY/WX    TMP DP  RH WIND       PRES   REMARKS
CAPE GIRARDEAU FOG       38  38 100 SW12      29.94F VSB 1/2
6HR MIN TEMP:  35; 6HR MAX TEMP:  38; 6HR PCP:  0.01;

FARMINGTON     CLOUDY    41  39  93 S10       29.87F
6HR MIN TEMP:  34; 6HR MAX TEMP:  41;

POPLAR BLUFF   CLOUDY    38  36  92 SW15      29.93F FOG     WCI  29
6HR MIN TEMP:  33; 6HR MAX TEMP:  38;

WEST PLAINS    CLOUDY    46  44  93 SW12      29.89F
6HR MIN TEMP:  33; 6HR MAX TEMP:  46;


$$


USA.gov is the U.S. government's official web portal to all federal, state and local government web resources and services.